Regional Weather Roundup
Issued by NWS

Home | Current Version | Previous Version | Text Only | Print | Product List | Glossary On
Versions: 1 2 3 4 5 6 7 8 9 10 11 12 13 14 15 16 17 18 19 20 21 22 23 24 25 26 27 28 29 30 31 32 33 34 35 36 37 38 39 40 41 42 43 44 45 46 47 48 49 50
000
ASUS43 KLMK 222202
RWRKY
KENTUCKY REGIONAL WEATHER ROUNDUP
NATIONAL WEATHER SERVICE LOUISVILLE KY
500 PM EST MON DEC 22 2014

NOTE "FAIR" INDICATES FEW OR NO CLOUDS BELOW 12,000 FEET
WITH NO SIGNIFICANT WEATHER AND/OR OBSTRUCTIONS TO VISIBILITY.

KYZ001>023-026-027-061>063-070>075-222300-
WESTERN AND SOUTH CENTRAL KENTUCKY

CITY           SKY/WX    TMP DP  RH WIND       PRES   REMARKS
PADUCAH        CLOUDY    54  49  83 S12G17    29.62F
HENDERSON      CLOUDY    52  45  76 SE14G21   29.68R
OWENSBORO      CLOUDY    52  47  83 SE9       29.71F
HOPKINSVILLE   CLOUDY    53  47  82 SE14      29.70S
BOWLING GREEN  CLOUDY    55  45  68 SE13      29.75F
GLASGOW        NOT AVBL
$$

KYZ024-025-028>034-038-045-046-053-222300-
NORTH CENTRAL KENTUCKY

CITY           SKY/WX    TMP DP  RH WIND       PRES   REMARKS
LOUISVILLE/SDF CLOUDY    52  42  69 E8        29.76F
LOUISVILLE/LOU CLOUDY    52  42  69 E3        29.77F
FORT KNOX      CLOUDY    51  43  73 SE5       29.74S
$$

KYZ035>037-039>044-047>052-055>060-089>105-222300-
NORTHEAST KENTUCKY

CITY           SKY/WX    TMP DP  RH WIND       PRES   REMARKS
LEXINGTON      CLOUDY    52  41  66 SE7       29.80S
COVINGTON      CLOUDY    50  37  61 SE8       29.81S
FRANKFORT      CLOUDY    51  41  68 SE3       29.79R
$$

KYZ054-064>069-076>088-106>120-222300-
SOUTHEAST KENTUCKY

CITY           SKY/WX    TMP DP  RH WIND       PRES   REMARKS
JACKSON        MOCLDY    54  39  57 VRB5      29.83F
LONDON         CLOUDY    57  42  57 S6        29.83R
SOMERSET       NOT AVBL
MIDDLESBORO    DRIZZLE   56  45  66 CALM      29.86R
MONTICELLO     CLOUDY    54  46  74 S5        29.84F
$$



USA.gov is the U.S. government's official web portal to all federal, state and local government web resources and services.